星链-11710 (STARLINK-11710)

导读 | 豆包AI

STARLINK-11710是美国太空探索技术公司SpaceX于2025年6月3日发射的星链网络卫星,属于星链项目低地球轨道卫星互联网星座组网的一部分,旨在为全球偏远地区提供低延迟高速宽带互联网服务。该卫星继承星链技术标准,运行于近地轨道,扩展了星链星座的覆盖范围与服务容量,进一步推动SpaceX全球卫星互联网组网进程。

基本信息
目录编号:
64244
目录名称:
STARLINK-11710
国际标识:
2025-119M
轨道中心:
EARTH
卫星名称:
星链-11710
卫星全名:
星链-11710 (STARLINK-11710)
卫星状态:
在轨 (已飞行284 天)
发射日期:
2025-06-03 UTC
国别 :
美国 (US)
星等 :
--
轨道信息
数据来源 国际轨道数据
星历时间: 2026-03-14T00:53:14+0800
1天前
查看轨道信息
半长轴: 6734.513km
偏心率: 0.0001959
轨道倾角: 42.998°
近地点辐角 244.224°
升交点赤经 185.128°
平近点角 115.843°
近地点: 355.056km
远地点: 357.696km
周期: 91.668分钟
每日圈数: 15.708819
详细信息
固有亮度:
5
最大亮度:
2.5
卫星平台:
Starlink V1.0
覆盖范围:
全球
运营商:
太空探索技术公司
运营商所在国:
美国
制造商(研发单位):
太空探索技术公司
制造商所在国:
美国
使用方式:
暂无
卫星简介
Starlink 计划是 SpaceX 推出的全球卫星互联网项目,通过发射低轨道卫星,为全球尤其是偏远地区提供高速、低延迟的互联网服务。自 2019 年起,Starlink 已部署数千颗卫星,旨在缩小全球数字鸿沟,推动互联网普及。该项目还为军事、航空等行业提供通信支持,带来广泛经济效益。
2D轨道图
3D轨道图
轨道高度分析图
轨道倾角分析图
轨道综合分析图
查看轨道综合分析图